Location: Litvinovka
(48.6667°N, 34.3500°E)
Time: 07:00:33
(UTC+00:00)

Cosmos 372 Rocket - Pass Details

Date: 18 September 2020
Orbit: 739 x 767 km, 74.1° (Epoch: 19 October)

Event Time Altitude Azimuth Distance (km) Brightness Sun altitude
Rises 17:03:39 0° 188° (S) 3,223 7.1 -13.0°
Reaches altitude 10° 17:06:02 10° 184° (S) 2,300 6.3 -13.4°
Maximum altitude 17:11:08 57° 107° (ESE) 901 4.0 -14.2°
Drops below altitude 10° 17:16:16 10° 30° (NNE) 2,306 6.4 -15.0°
Sets 17:18:40 0° 27° (NNE) 3,232 7.2 -15.4°
